TimeCDT,TemperatureF,Dew PointF,Humidity,Sea Level PressureIn,VisibilityMPH,Wind Direction,Wind SpeedMPH,Gust SpeedMPH,PrecipitationIn,Events,Conditions,WindDirDegrees,DateUTC
12:15 AM,33.8,32.0,93,30.20,10.0,Calm,Calm,-,N/A,,Clear,0,2012-10-08 05:15:00
12:35 AM,33.8,32.0,93,30.20,10.0,SSW,3.5,-,N/A,,Clear,200,2012-10-08 05:35:00
12:55 AM,32.0,30.2,93,30.19,10.0,South,4.6,-,N/A,,Clear,190,2012-10-08 05:55:00
1:15 AM,32.0,32.0,100,30.20,10.0,South,4.6,-,N/A,,Clear,190,2012-10-08 06:15:00
1:35 AM,32.0,30.2,93,30.20,10.0,South,6.9,-,N/A,,Clear,180,2012-10-08 06:35:00
1:55 AM,32.0,30.2,93,30.20,10.0,SSW,4.6,-,N/A,,Clear,200,2012-10-08 06:55:00
2:15 AM,32.0,30.2,93,30.19,10.0,SW,4.6,-,N/A,,Clear,220,2012-10-08 07:15:00
2:35 AM,32.0,30.2,93,30.19,10.0,South,5.8,-,N/A,,Clear,170,2012-10-08 07:35:00
2:55 AM,32.0,30.2,93,30.19,10.0,South,5.8,-,N/A,,Clear,180,2012-10-08 07:55:00
3:15 AM,32.0,30.2,93,30.19,10.0,South,3.5,-,N/A,,Clear,190,2012-10-08 08:15:00
3:35 AM,32.0,32.0,100,30.18,10.0,NNE,3.5,-,N/A,,Clear,20,2012-10-08 08:35:00
3:55 AM,32.0,30.2,93,30.17,10.0,ESE,4.6,-,N/A,,Clear,120,2012-10-08 08:55:00
4:15 AM,32.0,30.2,93,30.18,10.0,South,5.8,-,N/A,,Clear,170,2012-10-08 09:15:00
4:35 AM,32.0,30.2,93,30.17,10.0,SSE,5.8,-,N/A,,Clear,160,2012-10-08 09:35:00
4:55 AM,32.0,30.2,93,30.17,10.0,SSE,4.6,-,N/A,,Clear,160,2012-10-08 09:55:00
5:15 AM,32.0,30.2,93,30.16,10.0,SSE,4.6,-,N/A,,Clear,150,2012-10-08 10:15:00
5:35 AM,30.2,30.2,100,30.16,10.0,SSE,5.8,-,N/A,,Clear,160,2012-10-08 10:35:00
5:55 AM,30.2,30.2,100,30.16,10.0,SSE,5.8,-,N/A,,Clear,160,2012-10-08 10:55:00
6:20 AM,30.2,28.4,93,30.17,10.0,South,8.1,-,N/A,,Clear,170,2012-10-08 11:20:00
7:50 AM,30.2,28.4,93,30.17,10.0,South,8.1,-,N/A,,Clear,170,2012-10-08 12:50:00
8:50 AM,35.6,33.8,93,30.17,10.0,South,11.5,-,N/A,,Clear,180,2012-10-08 13:50:00
10:50 AM,53.6,33.8,47,30.16,10.0,SSW,13.8,19.6,N/A,,Clear,200,2012-10-08 15:50:00
11:50 AM,59.0,35.6,42,30.14,10.0,SSW,16.1,21.9,N/A,,Clear,210,2012-10-08 16:50:00
12:50 PM,62.6,35.6,37,30.11,10.0,SSW,17.3,23.0,N/A,,Clear,210,2012-10-08 17:50:00
3:50 PM,66.2,37.4,35,30.01,10.0,South,16.1,25.3,N/A,,Scattered Clouds,170,2012-10-08 20:50:00
4:50 PM,66.2,35.6,32,29.99,10.0,South,16.1,24.2,N/A,,Scattered Clouds,190,2012-10-08 21:50:00
5:59 PM,62.6,35.6,37,29.98,10.0,South,18.4,26.5,N/A,,Mostly Cloudy,170,2012-10-08 22:59:00
7:50 PM,55.4,37.4,51,29.99,10.0,SSE,8.1,-,N/A,,Mostly Cloudy,160,2012-10-09 00:50:00
8:50 PM,51.8,37.4,58,29.99,10.0,SSE,11.5,-,N/A,,Mostly Cloudy,160,2012-10-09 01:50:00
9:15 PM,51.8,37.4,58,29.99,10.0,SSE,8.1,-,N/A,,Clear,160,2012-10-09 02:15:00
9:35 PM,51.8,37.4,58,30.00,10.0,ESE,8.1,-,N/A,,Clear,110,2012-10-09 02:35:00
9:55 PM,51.8,37.4,58,29.99,10.0,East,9.2,-,N/A,,Clear,80,2012-10-09 02:55:00
10:15 PM,50.0,37.4,62,29.99,10.0,SSE,6.9,-,N/A,,Clear,150,2012-10-09 03:15:00
10:55 PM,50.0,37.4,62,29.99,10.0,South,6.9,-,N/A,,Clear,170,2012-10-09 03:55:00
11:35 PM,46.4,37.4,71,29.99,10.0,South,6.9,-,N/A,,Clear,170,2012-10-09 04:35:00
11:55 PM,44.6,35.6,71,29.99,10.0,SSE,5.8,-,N/A,,Clear,160,2012-10-09 04:55:00